GEFSSE_con_cape1000_000.txt.gz
Probability
0 77 100 100 100 100 100 100 100 100 100 100 100 100 100 100 100 100 100 100 100 100 100 97 100 100 100 100 100 100 100 100 100 100 100 100 100 100 100 100 100 100 100
0 68 100 100 100 100 100 100 100 100 100 97 100 100 100 100 100 100 100 100 100 100 100 100 100 100 100 100 100 100 100 100 100 100 100 100 100 100 100 100 100 100 100
13 84 100 100 100 100 100 100 100 100 100 100 100 100 100 100 100 100 100 100 100 97 87 100 100 100 100 100 100 100 100 100 100 100 100 100 100 100 100 100 100 100 100
10 94 100 100 100 100 100 100 100 100 100 100 100 100 97 100 100 100 100 100 100 100 97 100 100 100 100 100 100 100 100 100 100 100 100 100 100 100 100 100 100 100 100
6 87 100 100 100 100 100 100 100 100 100 100 100 94 97 100 100 100 100 100 100 100 100 100 100 100 100 100 100 100 100 100 100 100 100 100 100 100 100 100 100 100 100
6 100 100 100 100 100 100 100 100 100 100 100 100 100 100 100 100 100 100 100 100 100 100 100 100 100 100 100 100 100 100 100 100 100 100 100 100 100 100 100 100 100 100
61 100 100 100 100 100 100 100 100 100 100 100 100 100 100 100 100 100 100 100 100 87 81 100 100 100 100 100 100 100 100 100 100 100 100 100 100 100 100 100 100 100 100
97 100 100 100 100 100 100 100 100 100 100 100 100 100 100 100 100 100 100 100 58 6 45 100 100 100 100 100 100 100 100 100 100 97 97 100 100 100 100 100 100 100 100
100 100 100 100 100 100 100 100 100 100 100 100 100 100 100 100 100 97 90 26 0 0 94 100 100 100 100 100 100 100 100 100 97 97 90 97 100 100 100 100 100 100 100
84 68 100 97 100 100 100 100 100 100 100 100 100 100 100 100 100 94 19 6 6 81 97 100 100 100 100 100 100 100 100 100 94 81 81 100 100 100 100 100 100 100 100
39 16 35 97 100 100 100 100 100 100 100 100 100 100 100 100 97 87 77 87 94 100 100 100 100 97 87 90 100 100 100 32 77 61 100 100 100 100 100 100 100 100 100
39 32 45 58 100 100 100 100 100 100 100 100 61 61 71 65 97 87 84 97 100 100 100 100 100 32 10 0 3 94 94 84 94 100 100 100 100 100 100 100 100 100 100
32 65 74 48 68 90 94 84 100 100 100 97 39 19 10 10 26 68 55 84 100 94 3 10 0 0 0 0 0 16 71 87 100 100 100 100 100 100 100 100 100 100 94
71 94 90 55 65 55 55 74 39 100 100 94 65 19 0 0 0 0 0 13 6 0 0 0 0 0 0 0 3 35 61 87 100 100 100 100 100 100 100 100 100 100 100
84 97 90 61 42 42 42 39 32 61 90 97 100 55 32 0 0 0 0 3 0 0 0 0 0 0 0 0 0 3 71 90 100 100 100 100 100 100 100 100 100 100 100
61 81 94 71 29 29 39 52 23 58 71 71 74 39 16 0 0 0 0 0 0 0 0 0 0 0 0 0 0 0 0 0 32 81 90 97 97 100 100 100 100 100 100
58 77 81 77 29 29 39 32 10 29 23 10 16 10 6 0 0 0 0 0 0 0 0 0 0 0 0 0 0 0 0 0 0 0 0 0 23 39 84 97 100 100 100
74 94 84 68 45 42 52 32 16 10 10 6 10 3 3 0 0 0 0 0 0 0 0 0 0 0 0 0 0 0 0 0 0 0 0 0 0 0 10 3 71 100 100
97 100 100 100 100 84 74 52 29 13 39 42 16 10 6 0 0 0 0 0 0 0 0 0 0 0 0 0 0 0 0 0 0 0 0 0 0 0 0 0 0 13 61
81 100 100 100 100 100 97 71 77 87 77 94 94 84 68 0 0 0 0 0 0 0 0 0 0 0 0 0 0 0 0 0 0 0 0 0 0 0 0 0 0 0 3
65 58 87 100 100 100 100 100 68 61 87 100 100 97 100 42 3 19 0 0 0 0 0 0 19 0 0 0 0 0 0 0 0 0 0 0 0 0 0 0 0 0 0
97 81 94 100 71 77 90 100 100 100 100 100 97 100 94 26 0 0 6 6 0 0 10 0 6 87 0 0 0 0 0 0 0 0 0 0 0 0 0 0 0 0 0
100 100 100 97 77 90 100 94 90 81 94 94 100 97 39 3 0 0 10 26 13 0 71 84 71 10 0 0 0 0 0 0 0 0 0 0 0 0 0 0 0 0 0
94 100 100 100 100 94 94 90 90 100 100 29 94 100 74 19 10 16 3 6 6 32 13 84 68 84 42 0 0 0 0 0 0 0 0 0 0 0 0 0 0 0 0
61 94 97 100 100 100 100 100 100 100 97 94 94 90 32 19 19 26 23 3 0 6 23 42 61 97 45 0 0 0 0 0 0 0 0 0 0 0 0 0 0 0 0
58 90 94 100 100 100 100 100 100 100 100 94 58 26 10 10 55 16 16 6 3 3 19 23 10 61 87 29 0 0 0 0 0 0 0 0 0 0 0 0 0 0 0

GEFSSE_con_cape1000_006.txt.gz
Probability
94 94 100 100 100 100 100 100 100 100 100 100 100 100 100 100 100 100 100 100 100 100 97 97 100 100 100 100 100 100 100 100 100 100 100 100 100 100 100 100 100 100 100
97 100 100 100 100 100 100 100 100 100 100 100 100 100 100 100 100 100 97 84 84 94 100 97 100 100 100 100 100 100 100 100 100 100 100 100 100 100 100 100 100 100 100
100 100 100 100 100 100 100 100 100 100 100 100 100 100 100 100 100 100 97 74 42 84 100 100 100 100 100 100 100 100 100 100 100 100 100 100 100 100 100 100 100 100 100
100 100 100 100 100 100 100 100 100 100 97 100 100 94 94 100 100 100 100 100 81 94 100 100 100 100 100 100 100 100 100 100 100 100 100 100 100 100 100 100 100 100 100
100 97 100 100 100 100 100 100 100 100 100 100 97 65 84 97 100 100 97 65 29 97 100 100 100 100 100 100 100 100 100 100 100 100 100 100 100 100 100 100 97 97 100
100 100 100 100 100 100 100 100 100 100 100 100 81 65 90 100 100 100 97 68 42 84 100 100 100 100 100 100 100 100 100 100 100 100 100 100 100 100 100 100 97 90 94
97 100 100 100 100 100 100 100 100 100 100 100 84 97 100 100 100 100 100 74 19 58 94 100 100 100 100 100 94 87 100 100 100 100 100 100 100 100 100 100 100 94 97
100 100 97 100 100 100 100 100 100 100 100 100 100 100 100 97 94 97 100 23 0 23 77 94 100 100 100 97 77 29 29 94 58 74 100 100 100 100 100 100 100 100 97
94 100 97 87 100 100 100 100 100 100 100 100 100 100 100 100 97 100 48 0 0 52 94 100 100 100 84 26 3 0 0 71 45 10 87 94 100 100 100 100 100 100 100
94 97 97 84 52 35 100 100 100 100 100 100 100 100 100 100 94 52 3 0 3 26 71 87 81 26 3 0 0 0 0 19 6 68 97 97 100 77 100 100 100 100 97
100 68 48 81 58 23 29 90 100 100 100 100 100 100 100 61 6 6 0 0 0 6 71 35 16 3 0 0 0 6 32 19 23 77 81 100 100 58 55 77 74 84 84
10 32 19 29 52 39 61 77 100 81 77 45 16 52 94 19 0 0 0 16 26 74 68 13 6 6 3 0 0 26 10 10 29 65 94 100 100 94 71 68 52 71 74
0 3 16 13 16 29 71 61 94 100 87 55 10 6 19 0 0 0 0 35 19 23 0 0 6 0 0 0 0 10 3 19 81 100 100 100 100 100 100 100 90 81 68
0 0 0 10 3 10 23 16 32 48 48 52 48 6 3 0 0 0 0 0 0 0 0 0 0 0 0 0 0 0 13 42 87 100 100 100 100 100 100 100 100 94 94
10 13 3 3 6 0 61 81 29 29 6 6 71 19 0 0 0 0 0 0 0 0 0 0 0 0 0 0 0 0 16 61 84 90 97 100 100 100 100 100 100 100 100
13 29 39 13 13 13 61 16 16 19 87 6 16 3 0 0 0 0 0 3 0 0 0 0 0 0 0 0 0 0 0 13 32 55 77 94 100 100 100 100 100 100 100
13 26 65 52 32 35 58 23 6 16 3 6 10 0 0 0 0 0 0 0 0 0 0 0 0 0 0 0 0 0 0 0 0 0 3 26 29 84 100 100 100 100 94
10 23 87 71 55 48 74 90 48 58 13 6 3 0 0 0 0 0 0 0 0 0 0 0 0 0 0 0 0 0 0 0 0 0 0 0 3 0 32 84 97 97 97
10 19 100 90 81 97 100 100 97 58 55 23 10 6 6 0 0 0 0 0 0 0 0 0 0 0 0 0 0 0 0 0 0 0 0 0 0 0 0 3 19 23 29
10 19 97 100 100 100 100 100 97 90 58 52 39 58 6 3 0 0 0 0 0 0 0 0 0 3 0 0 0 0 0 0 0 0 0 0 0 0 0 0 0 0 0
32 35 100 100 100 100 100 100 100 97 90 81 94 84 71 55 10 0 0 0 0 0 3 0 3 0 0 0 0 0 0 0 0 0 0 0 0 0 0 0 0 0 0
68 71 90 100 100 100 100 100 100 97 74 84 90 94 77 61 29 6 0 0 0 3 10 6 0 0 0 0 0 0 0 0 0 0 0 0 0 0 0 0 0 0 0
100 94 87 100 100 100 100 100 100 100 87 84 100 100 90 90 58 48 6 0 0 3 3 0 0 0 0 0 0 0 0 0 0 0 0 0 0 0 0 0 0 0 0
94 90 94 100 97 97 100 100 100 100 90 77 94 97 100 100 94 87 55 16 0 0 3 0 0 0 0 0 0 0 0 0 0 0 0 0 0 0 0 0 0 0 0
81 90 90 100 100 100 100 100 100 100 97 90 97 94 100 100 90 84 55 19 0 0 0 3 3 3 0 0 0 0 0 0 0 0 0 0 0 0 0 0 0 0 0
97 97 97 100 100 100 100 100 100 100 100 94 94 100 100 100 100 94 68 42 13 0 0 0 6 6 0 0 0 0 0 0 0 0 0 0 0 0 0 0 0 0 0

GEFSSE_con_cape1000_012.txt.gz
Probability
0 61 100 100 100 100 100 100 100 100 100 100 100 100 100 100 100 100 100 100 100 97 100 100 100 100 100 100 100 100 100 100 100 100 100 100 100 100 100 100 100 100 100
3 87 100 100 100 100 100 100 100 100 100 100 100 100 100 100 100 94 84 97 100 100 100 100 100 100 100 100 100 100 100 100 100 100 100 100 97 97 97 100 100 100 100
16 100 100 100 100 100 100 100 100 100 100 100 100 100 100 97 94 77 84 97 100 100 100 100 100 100 100 100 100 100 100 100 100 100 100 100 100 97 97 100 100 100 100
26 100 100 100 100 100 100 100 100 100 100 100 100 100 100 100 100 100 100 100 100 100 100 100 100 100 100 100 100 100 100 100 100 100 100 100 100 100 100 100 100 100 100
39 97 100 100 100 100 100 100 100 100 100 100 100 100 100 100 100 94 97 97 100 100 100 100 100 100 100 100 100 100 100 100 100 100 100 100 100 100 100 100 100 100 100
13 74 100 100 100 100 100 100 100 100 100 97 97 100 100 100 100 90 90 90 100 100 100 100 100 100 94 84 94 100 100 100 100 100 100 100 100 100 100 100 97 100 100
23 87 100 100 100 100 100 100 100 100 100 97 97 100 100 100 100 97 81 77 100 94 94 100 100 65 23 29 35 81 100 100 84 94 100 100 100 100 100 100 97 100 100
55 87 100 100 100 100 100 100 100 100 100 97 100 100 100 100 100 94 48 58 68 65 81 94 84 26 3 0 3 16 97 100 48 74 97 100 100 100 100 100 100 100 100
39 58 100 100 100 100 100 100 100 100 100 100 100 100 100 100 97 81 19 19 68 97 90 71 45 3 0 0 0 3 71 94 3 19 87 97 100 100 100 100 100 100 100
10 26 84 87 94 100 100 100 100 100 100 100 100 100 100 100 94 48 3 35 84 94 68 42 0 0 0 0 0 23 90 77 3 45 74 97 100 100 100 100 100 100 100
6 0 19 19 16 16 42 100 100 100 100 100 100 100 100 48 26 10 0 23 61 48 35 19 3 0 0 0 6 48 19 0 0 23 81 100 81 81 90 90 90 97 94
6 3 3 3 3 3 6 35 26 97 100 100 84 94 0 0 0 0 0 16 19 26 13 6 3 3 0 0 0 0 0 0 0 23 90 100 81 35 65 71 77 87 87
0 6 0 0 3 0 0 0 0 13 19 3 3 0 0 0 0 0 0 0 0 6 0 0 0 0 0 0 0 0 0 0 0 23 100 100 100 81 71 77 74 81 84
0 3 6 0 0 0 0 0 0 3 0 3 0 0 0 0 0 0 0 0 0 0 0 0 0 0 0 0 0 0 0 0 0 0 97 100 100 100 100 97 87 84 84
0 0 3 3 0 0 0 0 0 0 0 0 0 0 0 0 0 0 0 0 0 0 0 0 0 0 0 0 0 0 0 0 0 0 61 100 100 100 100 100 100 97 97
3 0 3 0 0 0 0 0 0 0 0 0 0 0 0 0 0 0 0 0 0 0 0 0 0 0 0 0 0 0 0 0 0 0 0 84 100 100 100 100 100 100 100
0 0 3 0 0 0 0 0 0 0 0 0 0 0 0 0 0 0 0 0 0 0 0 0 0 0 0 0 0 0 0 0 0 0 0 0 26 100 100 100 100 94 90
0 0 3 6 0 0 0 0 0 0 0 0 0 0 0 0 0 0 0 0 0 0 0 0 0 0 0 0 0 0 0 0 0 0 0 0 3 23 97 100 100 97 84
0 0 3 3 0 0 0 0 0 0 0 0 0 0 0 0 0 0 0 0 0 0 0 0 0 0 0 0 0 0 0 0 0 0 0 0 0 3 6 61 90 94 94
0 0 6 3 0 0 0 0 0 0 0 0 0 0 0 0 0 0 0 0 0 0 0 0 0 0 0 0 0 0 0 0 0 0 0 0 0 0 0 0 0 10 74
3 3 10 3 3 0 0 0 0 0 0 0 0 0 0 0 0 0 0 0 0 0 0 0 0 0 0 0 0 0 0 0 0 0 0 0 0 0 0 0 0 0 0
13 19 26 13 3 3 0 0 0 0 0 0 0 0 0 0 0 0 0 0 0 0 0 0 0 0 0 0 0 0 0 0 0 0 0 0 0 0 0 0 0 0 0
19 55 71 65 35 13 6 0 0 0 0 0 0 0 0 0 0 0 0 0 0 0 0 0 0 0 0 0 0 0 0 0 0 0 0 0 0 0 0 0 0 0 0
58 90 97 87 68 55 26 13 6 0 0 0 0 0 0 0 0 0 0 0 0 0 0 0 0 0 0 0 0 0 0 0 0 0 0 0 0 0 0 0 0 0 0
97 97 87 81 81 81 68 52 29 0 0 0 0 0 0 0 0 0 0 0 0 0 0 0 0 0 0 0 0 0 0 0 0 0 0 0 0 0 0 0 0 0 0
81 87 65 58 61 65 74 68 45 19 0 0 0 0 0 0 0 0 0 0 0 0 0 0 0 0 0 0 0 0 0 0 0 0 0 0 0 0 0 0 0 0 0

GEFSSE_con_cape1000_018.txt.gz
Probability
0 0 100 100 100 100 100 100 100 100 100 100 100 100 100 100 100 100 97 97 97 100 100 100 100 100 100 100 100 100 100 100 100 100 100 100 100 100 100 100 100 100 100
0 23 100 100 100 100 100 100 100 100 100 100 100 100 97 97 94 94 97 97 97 100 100 100 100 100 100 100 100 100 100 100 100 100 100 100 100 100 100 100 100 100 100
0 84 100 100 100 100 100 100 100 100 100 100 100 100 94 90 87 90 94 97 97 97 100 100 100 100 100 100 100 100 100 100 100 100 100 97 100 100 100 100 100 100 100
10 97 100 100 100 100 100 100 100 100 100 100 100 100 97 94 90 94 94 87 87 87 94 100 100 100 100 100 100 100 100 100 100 100 100 97 100 100 100 100 100 100 100
39 97 100 100 100 100 100 100 100 100 100 100 100 97 100 100 97 90 90 90 81 90 94 100 100 100 100 100 100 100 100 100 100 100 97 94 100 100 100 100 100 100 100
52 100 100 100 100 100 100 100 100 100 100 100 100 100 100 94 74 61 74 90 74 52 48 87 90 94 97 100 100 100 100 100 100 94 97 97 97 100 100 100 100 100 100
48 97 100 100 100 100 100 100 100 100 100 100 100 100 100 90 48 39 61 77 74 42 16 32 32 35 81 90 100 100 100 100 74 74 84 100 100 100 100 100 100 100 97
32 90 100 100 100 100 100 100 100 100 100 100 100 100 100 94 77 39 42 61 58 26 6 13 6 6 13 35 84 100 100 97 84 77 90 94 100 100 100 100 100 100 97
16 68 97 100 100 100 100 100 100 100 100 97 100 100 100 97 84 29 19 16 13 6 3 0 0 0 0 10 45 87 97 100 6 52 97 100 100 100 100 100 100 100 100
0 39 71 94 100 100 100 100 100 100 100 100 100 100 100 97 77 23 6 0 0 0 0 0 0 0 0 10 61 97 100 61 6 32 58 97 100 100 100 100 100 100 100
0 10 26 39 42 55 74 100 100 100 100 100 100 100 100 42 6 3 0 10 0 0 0 0 0 0 0 13 84 100 71 0 3 10 19 94 97 94 100 97 97 100 100
0 0 3 3 0 3 65 87 81 100 94 84 58 61 0 0 0 0 0 3 0 0 0 0 0 0 0 0 16 16 0 0 0 6 35 100 42 65 84 87 94 97 94
0 0 3 0 0 0 0 0 3 6 0 3 0 0 0 0 0 0 0 0 0 0 0 0 0 0 0 0 0 0 0 0 0 0 23 100 81 42 48 61 68 81 94
0 0 0 0 0 0 0 0 0 0 0 0 0 0 0 0 0 0 0 0 0 0 0 0 0 0 0 0 0 0 0 0 0 0 13 100 100 90 71 58 61 74 77
0 0 0 0 0 0 0 0 0 0 3 0 0 0 0 0 0 0 0 0 0 0 0 0 0 0 0 0 0 0 0 0 0 0 0 100 100 100 100 97 97 94 90
0 0 0 0 0 0 0 0 0 0 0 0 0 0 0 0 0 0 0 0 0 0 0 0 0 0 0 0 0 0 0 0 0 0 0 3 100 100 100 100 100 90 100
3 0 0 0 0 0 0 0 0 0 0 0 0 0 0 0 0 0 0 0 0 0 0 0 0 0 0 0 0 0 0 0 0 0 0 0 6 97 100 100 100 100 94
3 3 6 32 0 0 0 0 0 0 0 0 0 0 0 0 0 0 0 0 0 0 0 0 0 0 0 0 0 0 0 0 0 0 0 0 0 3 61 100 100 84 77
6 6 13 26 13 0 0 0 0 0 0 0 0 0 0 0 0 0 0 0 0 0 0 0 0 0 0 0 0 0 0 0 0 0 0 0 0 0 0 23 94 94 90
0 10 16 16 19 3 0 0 0 0 0 0 0 0 0 0 0 0 0 0 0 0 0 0 0 0 0 0 0 0 0 0 0 0 0 0 0 0 0 0 0 16 74
0 6 13 16 10 3 0 0 0 0 0 0 0 0 0 0 0 0 0 0 0 0 0 0 0 0 0 0 0 0 0 0 0 0 0 0 0 0 0 0 0 0 0
0 6 16 16 6 3 0 0 0 0 0 0 0 0 0 0 0 0 0 0 0 0 0 0 0 0 0 0 0 0 0 0 0 0 0 0 0 0 0 0 0 0 0
0 0 13 19 6 3 0 0 0 0 0 0 0 0 0 0 0 0 0 0 0 0 0 0 0 0 0 0 0 0 0 0 0 0 0 0 0 0 0 0 0 0 0
0 0 10 10 6 3 0 0 0 0 0 0 0 0 0 0 0 0 0 0 0 0 0 0 0 0 0 0 0 0 0 0 0 0 0 0 0 0 0 0 0 0 0
6 0 0 6 3 3 0 0 0 0 0 0 0 0 0 0 0 0 0 0 0 0 0 0 0 0 0 0 0 0 0 0 0 0 0 0 0 0 0 0 0 0 0
23 23 3 3 3 0 0 0 0 0 0 0 0 0 0 0 0 0 0 0 0 0 0 0 0 0 0 0 0 0 0 0 0 0 0 0 0 0 0 0 0 0 0

GEFSSE_con_cape1000_024.txt.gz
Probability
6 94 100 100 100 100 100 100 100 100 100 100 100 100 97 97 90 90 94 97 100 100 100 100 100 100 100 100 100 100 100 100 100 100 100 100 100 100 100 100 100 100 100
13 100 100 100 100 100 100 100 100 100 100 100 100 97 97 87 87 90 90 97 100 100 100 100 100 100 100 100 100 100 100 100 100 100 100 100 100 100 100 100 100 100 100
77 100 100 100 100 100 100 100 100 100 100 100 97 97 87 84 74 77 74 84 90 97 100 100 97 100 100 100 100 100 100 100 100 100 100 100 100 100 100 97 100 97 100
65 100 100 100 100 100 100 100 100 100 100 100 100 94 81 81 81 81 77 77 90 94 97 97 97 97 100 100 100 100 100 100 100 100 100 97 100 100 100 97 97 97 97
65 97 100 100 100 100 100 100 100 100 100 100 97 87 81 81 81 71 68 68 84 94 97 97 97 97 100 100 97 97 100 100 100 100 100 100 100 100 100 97 94 94 97
35 81 100 100 100 100 100 100 100 100 100 100 100 94 94 84 74 68 61 52 58 77 94 97 97 97 97 97 100 100 100 100 100 100 100 100 100 100 100 100 100 100 97
6 35 100 100 100 100 100 100 100 100 100 100 100 97 87 74 58 61 61 52 48 45 39 58 71 77 97 100 100 100 100 100 100 100 100 100 100 100 100 100 100 97 97
6 16 97 100 100 100 100 100 100 100 100 100 100 100 87 61 39 55 65 65 45 32 23 13 23 26 68 100 100 100 100 100 97 97 100 100 100 100 100 97 100 97 97
3 6 74 100 100 100 100 100 100 100 100 100 100 100 100 87 52 42 48 52 23 13 3 0 3 13 42 84 100 100 100 81 84 68 52 100 100 100 100 97 100 97 97
0 0 13 84 97 100 100 100 100 100 100 100 100 100 100 90 48 23 32 10 3 0 0 0 0 6 45 74 97 100 94 74 19 23 61 100 100 100 100 100 94 94 100
0 0 0 26 65 94 100 97 100 100 100 100 100 100 100 87 39 13 0 3 3 0 0 0 0 3 16 71 100 100 71 0 3 3 58 94 97 94 97 97 90 94 94
0 0 3 16 48 84 94 100 100 94 100 97 100 100 100 42 16 3 0 0 0 0 0 0 0 0 0 3 19 39 0 0 0 3 48 97 48 45 65 84 94 97 97
16 16 10 23 29 68 100 100 100 100 100 100 94 97 77 13 6 0 0 3 0 0 0 3 0 0 0 0 0 0 0 0 0 0 58 100 84 39 29 42 58 71 87
13 26 23 16 16 45 97 100 100 100 100 100 84 29 29 10 0 0 0 0 6 0 0 0 0 0 0 0 0 0 0 0 0 10 94 100 94 81 55 29 45 58 71
6 26 32 29 13 16 81 100 100 100 100 87 100 23 10 6 0 0 0 0 0 0 0 0 0 0 0 0 0 0 0 0 3 16 81 100 84 90 87 81 77 65 77
10 13 35 35 23 16 77 100 100 100 100 71 52 19 0 0 0 0 0 0 0 0 0 0 0 0 0 0 0 0 0 0 10 32 52 97 81 90 71 77 94 84 87
3 3 10 32 23 13 13 32 74 100 94 74 55 3 0 0 0 0 0 0 0 0 0 0 0 0 0 0 0 0 0 0 3 10 35 71 94 90 87 77 77 71 77
10 10 16 71 39 35 42 58 81 87 90 74 42 16 0 0 0 0 0 0 0 0 0 0 0 0 0 0 0 0 0 0 0 3 10 29 81 87 84 90 65 68 61
16 39 52 90 90 90 90 97 97 94 97 81 58 35 3 0 6 16 23 13 0 0 0 0 0 0 0 0 0 0 0 0 0 0 3 6 23 61 65 90 94 90 71
29 42 81 100 100 100 100 100 100 97 94 90 74 65 26 35 26 35 74 26 10 10 10 3 0 0 0 0 0 0 0 0 0 0 3 3 6 13 13 16 35 61 61
16 45 74 97 100 100 100 100 100 100 100 97 87 65 90 87 84 87 84 65 71 52 13 6 6 0 6 3 0 0 0 0 0 0 0 3 3 0 6 0 10 16 29
13 23 48 81 100 100 100 100 100 100 100 100 97 94 97 94 94 74 87 84 81 77 52 19 23 35 10 0 3 0 3 0 0 0 0 0 0 0 0 0 0 6 6
29 19 29 42 90 100 100 100 94 97 90 97 94 97 100 97 97 87 77 84 84 74 90 84 52 42 55 3 0 0 0 6 0 0 0 0 0 0 0 0 0 0 0
42 42 23 39 77 97 90 84 74 71 74 74 94 97 94 94 90 90 74 77 61 68 87 74 19 84 87 29 0 0 0 3 3 0 0 0 0 0 0 0 0 0 0
35 45 48 52 84 81 74 55 48 45 45 55 65 65 84 94 90 94 77 68 39 52 35 23 16 29 61 58 26 10 3 3 0 6 0 0 0 0 0 0 0 0 0
35 45 55 71 61 48 45 29 13 6 10 26 32 61 65 87 87 71 65 48 29 23 10 13 16 29 45 29 32 26 16 0 0 3 10 6 0 0 0 0 0 0 0

GEFSSE_con_cape1000_030.txt.gz
Probability
90 81 100 100 100 100 100 100 100 100 100 100 100 100 94 94 94 97 100 100 100 100 100 100 100 100 100 97 97 97 94 97 94 100 100 100 100 100 100 100 100 100 100
87 90 100 100 100 100 100 100 100 100 100 100 100 94 94 94 94 97 97 97 100 100 100 100 100 100 97 94 94 97 94 90 94 97 100 100 100 100 100 100 100 100 100
87 87 100 100 100 100 100 100 100 100 100 100 97 90 87 81 84 87 87 90 94 97 97 97 97 100 100 100 97 97 90 87 90 97 100 97 100 100 100 100 100 100 100
77 77 97 100 100 100 100 100 100 97 97 94 94 94 84 77 71 81 81 90 94 90 90 94 100 100 100 100 100 97 97 97 97 97 97 94 97 100 100 97 100 97 97
52 55 100 100 100 100 100 100 100 97 97 97 90 84 81 81 74 77 74 90 97 97 97 94 97 100 100 100 100 100 97 100 97 97 90 94 97 97 100 94 94 97 97
74 84 100 100 100 100 100 100 100 100 100 94 94 87 81 81 65 61 65 74 84 90 90 97 97 97 100 100 97 100 100 97 97 90 94 94 94 97 100 100 97 97 97
87 90 94 100 100 100 100 100 100 100 97 97 90 94 77 71 65 58 45 48 45 55 58 77 94 97 100 100 100 90 97 97 87 84 90 87 87 100 100 100 100 100 97
90 94 90 100 100 100 100 100 100 100 100 97 94 87 77 61 61 58 55 52 26 13 23 29 55 81 100 100 100 97 94 94 90 87 87 84 94 100 97 100 100 100 97
77 87 84 97 100 100 100 100 100 100 100 100 97 90 74 68 58 58 65 42 19 0 0 10 19 45 87 97 100 65 81 97 74 97 100 100 100 100 100 100 100 97 97
23 87 77 68 94 100 100 100 100 100 100 100 100 100 87 61 58 58 55 35 13 0 0 0 6 23 58 90 90 71 77 90 42 84 97 100 100 100 100 100 100 100 94
0 52 55 42 71 84 94 100 100 100 100 100 100 100 97 55 32 39 45 16 6 0 0 0 0 10 48 77 94 94 81 0 10 68 74 100 100 94 94 94 97 97 97
0 3 45 61 84 90 94 97 94 97 100 97 94 97 90 74 35 6 19 16 3 0 0 0 0 3 29 13 52 90 3 6 3 29 65 100 87 71 71 81 84 94 90
0 0 13 52 84 87 100 90 97 90 94 87 97 84 87 65 16 6 0 0 0 0 0 0 0 0 0 0 0 0 0 0 3 19 42 94 65 39 35 39 45 68 71
0 0 0 13 61 81 97 94 100 94 100 87 87 87 65 55 23 6 0 0 0 0 0 0 0 0 0 0 0 0 0 0 6 52 29 90 68 42 35 19 32 32 52
0 3 0 3 29 52 97 100 97 97 90 87 77 97 65 45 10 6 3 0 0 0 0 0 0 0 0 0 0 0 0 0 13 29 0 81 71 55 65 58 35 29 45
3 6 3 10 6 42 94 97 100 100 100 84 87 87 26 16 10 0 0 0 0 0 0 0 0 0 0 0 0 0 0 0 0 61 35 13 77 65 55 61 65 58 52
0 3 10 19 10 16 58 77 87 100 90 87 77 42 16 6 0 0 0 0 0 0 0 0 0 0 0 0 0 0 0 0 0 3 58 29 0 55 52 68 52 52 48
3 0 3 13 10 10 16 58 52 90 87 74 68 45 6 0 0 3 3 0 0 0 0 0 0 0 0 0 0 0 0 0 0 0 6 45 26 3 29 71 61 52 61
13 3 13 16 13 10 19 45 74 55 97 81 48 42 13 0 3 6 13 3 0 0 0 0 0 0 0 0 0 0 0 0 0 0 0 3 32 39 0 19 87 81 71
16 10 13 23 29 16 45 26 94 87 87 84 74 55 16 13 10 16 3 3 0 0 0 0 0 0 3 3 0 0 0 0 0 0 0 0 0 13 0 0 13 26 71
16 19 26 45 48 74 100 97 100 97 100 94 94 55 55 32 39 32 23 19 16 3 0 0 0 0 0 0 0 0 0 0 0 0 0 0 0 0 0 6 13 10 6
13 26 23 32 61 77 97 97 100 100 94 90 87 84 61 42 39 35 16 29 26 6 10 3 0 0 0 0 0 0 0 0 0 0 0 0 0 0 0 13 10 6 6
10 13 32 42 55 61 87 97 97 94 90 84 74 77 68 55 58 35 26 32 16 16 10 6 6 0 0 0 0 0 0 0 0 0 0 0 0 0 0 0 0 0 3
6 13 23 39 61 65 77 94 90 84 68 65 61 61 52 55 55 45 26 16 13 13 13 0 0 0 0 0 0 0 0 0 0 0 0 0 0 0 0 0 0 0 0
6 16 16 35 45 55 84 84 77 71 58 45 39 29 26 26 35 45 32 13 10 3 3 0 0 0 0 3 6 0 0 0 0 0 0 0 0 0 0 0 0 0 0
6 16 16 32 32 45 52 65 58 42 29 23 13 6 6 13 10 10 16 13 3 0 0 0 0 3 3 0 0 0 0 0 0 0 0 0 0 0 0 0 0 0 0

GEFSSE_con_cape1000_036.txt.gz
Probability
6 77 100 100 100 100 100 100 100 100 100 100 100 100 100 100 100 100 100 100 100 100 100 100 100 100 97 100 100 100 100 100 100 100 100 100 100 100 100 100 100 100 100
23 97 100 100 100 100 100 100 100 100 100 100 94 94 97 97 97 100 100 100 100 100 100 100 100 100 100 97 97 97 97 100 100 100 100 100 100 100 100 100 100 100 100
55 97 100 100 100 100 100 100 100 100 100 97 97 97 97 97 97 97 100 97 100 100 100 100 100 100 97 97 94 97 94 100 97 87 74 68 84 100 100 100 100 100 100
74 100 100 100 100 100 100 100 100 100 100 97 97 97 97 97 97 97 97 97 94 94 94 100 100 100 97 100 97 97 97 97 87 74 61 65 68 94 100 100 100 94 97
77 90 100 100 100 100 100 100 100 100 100 97 94 94 97 97 97 94 97 94 94 94 94 97 100 100 100 100 97 97 97 97 84 68 61 61 68 77 94 100 94 94 94
58 97 100 100 100 100 100 100 100 100 100 97 97 97 94 90 90 94 97 94 94 94 94 94 97 100 100 100 100 97 97 94 77 68 68 68 74 84 97 97 100 97 97
61 97 100 100 100 100 100 100 100 100 100 100 100 100 90 87 84 81 77 71 65 65 71 81 87 97 100 100 100 94 97 94 71 74 68 74 81 90 97 97 100 97 97
71 97 100 100 100 100 100 100 100 100 100 100 97 90 87 87 77 74 61 48 32 32 35 55 84 90 100 100 97 97 94 84 77 71 77 77 87 90 97 100 97 97 97
58 84 100 100 100 100 100 100 100 100 97 100 100 90 87 90 84 81 58 32 13 16 16 35 58 71 90 94 87 84 94 90 58 81 81 84 90 97 100 100 97 97 97
32 74 97 100 100 100 100 100 100 100 100 100 100 94 90 94 84 84 55 42 3 0 6 13 35 52 68 84 84 84 90 42 55 74 84 90 97 100 100 100 100 100 97
35 29 81 90 94 97 100 100 100 100 100 100 100 97 94 58 48 55 42 42 26 0 0 3 16 29 52 68 84 87 52 0 26 55 84 100 100 100 97 97 97 97 94
35 13 10 35 55 74 97 100 97 100 100 100 94 84 39 3 0 23 35 58 39 23 0 0 3 13 23 6 10 23 0 0 10 29 81 100 94 94 94 94 97 97 94
55 29 3 6 13 39 48 81 81 61 74 84 55 45 10 0 0 3 0 32 19 6 0 0 0 0 0 0 0 0 0 0 3 6 68 100 94 81 71 81 77 87 87
45 52 35 10 10 10 19 68 39 32 39 29 16 6 3 0 0 0 0 0 0 0 0 0 0 0 0 0 0 0 0 0 0 0 23 100 87 61 42 45 45 68 74
19 48 39 32 13 13 13 42 19 13 19 10 3 0 3 0 0 0 0 0 0 0 0 0 0 0 0 0 0 0 0 0 0 0 0 90 90 74 48 39 39 42 55
0 3 32 35 32 16 19 16 13 10 10 3 0 0 0 0 0 0 0 0 0 0 0 0 0 0 0 0 0 0 0 0 0 0 0 26 81 90 87 71 55 42 42
0 0 10 32 35 32 26 16 16 6 0 0 0 0 0 0 0 0 0 0 0 0 0 0 0 0 0 0 0 0 0 0 0 0 0 0 3 48 87 97 84 74 71
0 0 6 23 26 23 26 13 16 6 3 3 0 0 0 0 0 0 0 0 0 0 0 0 0 0 0 0 0 0 0 0 0 0 0 0 0 3 23 94 90 81 81
0 0 0 6 6 10 29 19 10 19 10 10 0 0 0 0 0 0 0 0 0 0 0 0 0 0 0 0 0 0 0 0 0 0 0 0 0 0 0 23 77 77 77
0 0 0 0 3 3 3 6 10 13 16 0 0 0 0 0 0 0 0 0 0 0 0 0 0 0 0 0 0 0 0 0 0 0 0 0 0 0 0 0 0 6 77
0 0 0 0 0 3 3 3 6 6 13 3 0 0 0 0 0 0 0 0 0 0 0 0 0 0 0 0 0 0 0 0 0 0 0 0 0 0 0 0 0 0 3
0 0 0 0 0 0 3 3 10 6 3 3 0 0 0 0 0 0 0 0 0 0 0 0 0 0 0 0 0 0 0 0 0 0 0 0 0 0 0 0 0 0 0
0 0 0 0 0 0 0 3 3 3 0 0 0 0 0 0 0 0 0 0 0 0 0 0 0 0 0 0 0 0 0 0 0 0 0 0 0 0 0 0 0 0 0
0 0 0 0 0 0 0 0 3 3 3 3 3 3 0 0 0 0 0 0 0 0 0 0 0 0 0 0 0 0 0 0 0 0 0 0 0 0 0 0 0 0 0
0 0 0 0 0 0 0 0 3 3 3 3 6 3 0 0 0 0 0 0 0 0 0 0 0 0 0 0 0 0 0 0 0 0 0 0 0 0 0 0 0 0 0
0 0 0 0 0 0 0 0 3 6 3 0 0 3 0 0 0 0 0 0 0 0 0 0 0 0 0 0 0 0 0 0 0 0 0 0 0 0 0 0 0 0 0

GEFSSE_con_cape1000_042.txt.gz
Probability
0 3 100 100 100 100 100 100 100 100 100 100 100 100 100 100 100 100 100 100 100 100 100 100 100 97 97 97 97 100 100 100 100 100 100 100 100 100 100 100 100 100 100
0 35 100 100 100 100 100 100 100 100 100 100 100 100 100 100 100 100 100 100 100 100 100 100 97 97 97 97 97 100 100 100 100 100 100 100 100 100 100 100 100 100 100
10 90 100 100 100 100 100 100 100 100 97 94 94 97 97 97 97 97 100 100 100 97 100 100 97 97 97 97 94 100 100 100 100 94 84 81 100 100 100 100 100 100 100
52 97 100 100 100 100 100 100 100 97 94 94 94 94 94 97 97 94 97 90 87 97 97 97 97 97 97 100 100 100 97 97 87 74 58 65 100 100 97 100 100 97 100
61 100 100 100 100 100 100 100 100 97 94 94 90 90 81 77 90 94 94 94 87 87 90 97 97 97 97 97 100 100 97 90 77 61 61 61 81 100 97 97 100 97 97
87 100 100 100 100 100 100 100 100 100 97 94 87 74 74 68 81 84 87 90 87 87 90 94 97 97 97 97 97 100 97 87 65 55 65 65 71 97 100 97 100 97 97
84 97 100 100 100 100 100 100 100 100 97 94 90 77 71 65 65 71 81 81 74 81 74 81 81 90 90 94 100 100 100 97 58 55 68 68 77 97 100 100 94 97 97
77 100 100 100 100 100 100 100 100 100 100 97 94 94 84 71 58 55 52 48 39 42 45 68 81 77 90 90 94 97 100 97 77 68 65 68 87 97 97 97 94 94 94
74 100 100 100 100 100 100 100 100 100 100 100 100 94 84 74 58 45 23 26 23 13 13 45 52 77 87 90 94 97 97 90 55 65 68 71 87 94 94 94 90 94 94
71 87 97 100 100 100 100 100 100 100 100 100 100 100 97 84 68 42 29 23 10 6 6 10 29 45 52 81 90 90 94 81 35 61 58 81 94 100 100 100 97 97 97
48 65 87 97 100 100 100 100 100 100 100 100 100 100 100 71 45 39 39 39 13 3 0 0 6 19 29 29 58 68 23 6 10 19 35 90 97 100 97 97 97 94 94
42 61 84 87 90 90 100 100 100 100 97 97 90 90 48 10 6 29 26 42 26 16 6 3 0 3 0 0 0 3 0 0 0 10 19 100 97 94 94 97 97 94 94
29 48 71 55 68 87 94 81 87 90 87 84 71 55 16 3 0 3 0 10 10 19 0 0 0 0 0 0 0 0 0 0 0 0 6 100 90 90 87 90 87 94 94
13 23 32 52 35 61 71 55 77 68 65 52 35 13 6 3 0 0 0 0 0 0 0 0 0 0 0 0 0 0 0 0 0 0 0 94 81 61 48 52 74 74 74
6 10 13 13 13 19 26 13 68 65 65 55 29 10 6 3 0 0 0 0 0 0 0 0 0 0 0 0 0 0 0 0 0 0 0 48 90 71 32 29 35 35 52
0 3 10 13 6 10 19 13 35 48 29 16 16 6 0 0 0 0 0 0 0 0 0 0 0 0 0 0 0 0 0 0 0 0 0 0 71 74 71 42 29 32 26
0 0 0 6 10 3 6 6 23 26 19 10 6 3 0 0 0 0 0 0 0 0 0 0 0 0 0 0 0 0 0 0 0 0 0 0 0 32 74 68 58 42 35
0 0 0 0 3 6 3 10 13 19 13 3 0 0 0 0 0 0 0 0 0 0 0 0 0 0 0 0 0 0 0 0 0 0 0 0 0 0 3 58 77 74 58
0 0 0 0 0 0 6 10 6 10 3 3 6 0 0 0 0 0 0 0 0 0 0 0 0 0 0 0 0 0 0 0 0 0 0 0 0 0 0 0 45 68 65
0 0 0 0 0 0 0 10 3 6 6 6 6 3 0 0 0 0 0 0 0 0 0 0 0 0 0 0 0 0 0 0 0 0 0 0 0 0 0 0 0 0 23
0 0 0 0 0 0 0 0 10 6 13 13 6 0 0 0 0 0 0 0 0 0 0 0 0 0 0 0 0 0 0 0 0 0 0 0 0 0 0 0 0 0 0
0 0 0 0 0 0 0 0 0 6 6 13 13 6 6 3 0 0 0 0 0 0 0 0 0 0 0 0 0 0 0 0 0 0 0 0 0 0 0 0 0 0 0
0 0 0 0 0 0 0 0 0 0 0 3 10 13 6 3 0 0 0 0 0 0 0 0 0 0 0 0 0 0 0 0 0 0 0 0 0 0 0 0 0 0 0
0 0 0 0 0 0 0 0 0 0 3 6 10 10 10 3 0 0 0 0 0 0 0 0 0 0 0 0 0 0 0 0 0 0 0 0 0 0 0 0 0 0 0
0 0 0 0 0 0 0 0 0 0 3 3 0 0 0 0 0 0 0 0 0 0 0 0 0 0 0 0 0 0 0 0 0 0 0 0 0 0 0 0 0 0 0
0 0 0 0 0 0 0 0 0 0 0 3 0 0 0 0 0 0 0 0 0 0 0 0 0 0 0 0 0 0 0 0 0 0 0 0 0 0 0 0 0 0 0